TimeMDT,TemperatureF,Dew PointF,Humidity,Sea Level PressureIn,VisibilityMPH,Wind Direction,Wind SpeedMPH,Gust SpeedMPH,PrecipitationIn,Events,Conditions,WindDirDegrees,DateUTC
12:53 AM,26.1,17.1,69,30.55,10.0,West,6.9,-,N/A,,Overcast,260,2012-10-26 06:53:00
1:53 AM,26.1,16.0,66,30.54,10.0,WSW,8.1,-,N/A,,Overcast,250,2012-10-26 07:53:00
2:53 AM,25.0,16.0,69,30.51,10.0,WSW,8.1,-,N/A,,Overcast,240,2012-10-26 08:53:00
3:53 AM,19.9,15.1,81,30.51,10.0,SSW,8.1,-,N/A,,Clear,210,2012-10-26 09:53:00
4:53 AM,17.1,12.9,84,30.51,10.0,SSW,6.9,-,N/A,,Clear,210,2012-10-26 10:53:00
5:53 AM,16.0,12.0,84,30.51,10.0,Calm,Calm,-,N/A,,Clear,0,2012-10-26 11:53:00
6:53 AM,19.0,12.9,77,30.50,10.0,Calm,Calm,-,N/A,,Clear,0,2012-10-26 12:53:00
7:53 AM,16.0,10.9,81,30.47,10.0,SSE,4.6,-,N/A,,Clear,150,2012-10-26 13:53:00
8:53 AM,19.4,15.8,86,30.34,10.0,Calm,Calm,-,N/A,,Clear,0,2012-10-26 14:53:00
9:53 AM,23.0,17.1,78,30.44,10.0,NE,4.6,-,N/A,,Overcast,50,2012-10-26 15:53:00
10:53 AM,26.1,18.0,71,30.42,10.0,ENE,9.2,-,N/A,,Mostly Cloudy,60,2012-10-26 16:53:00
11:53 AM,28.9,17.1,61,30.39,10.0,East,9.2,-,N/A,,Overcast,90,2012-10-26 17:53:00
12:53 PM,30.0,16.0,56,30.36,10.0,ENE,11.5,-,N/A,,Overcast,60,2012-10-26 18:53:00
1:53 PM,32.0,17.1,54,30.32,10.0,ENE,9.2,-,N/A,,Overcast,60,2012-10-26 19:53:00
2:53 PM,28.9,21.0,72,30.32,5.0,ENE,10.4,-,0.00,Snow,Light Snow,60,2012-10-26 20:53:00
3:17 PM,28.4,21.2,74,30.21,4.0,ENE,12.7,-,0.00,Snow,Light Snow,60,2012-10-26 21:17:00
3:41 PM,28.4,21.2,74,30.21,8.0,ENE,13.8,-,0.00,,Overcast,60,2012-10-26 21:41:00
3:53 PM,28.0,21.9,78,30.32,9.0,ENE,11.5,-,0.00,,Overcast,60,2012-10-26 21:53:00
4:14 PM,28.4,23.0,80,30.20,4.0,ENE,12.7,-,0.00,Snow,Light Snow,60,2012-10-26 22:14:00
4:19 PM,26.6,23.0,86,30.20,4.0,ENE,13.8,-,0.00,Snow,Light Snow,60,2012-10-26 22:19:00
4:27 PM,26.6,23.0,86,30.19,6.0,ENE,13.8,-,0.00,Snow,Light Snow,70,2012-10-26 22:27:00
4:35 PM,26.6,23.0,86,30.20,7.0,ENE,12.7,-,0.00,Snow,Light Snow,60,2012-10-26 22:35:00
4:42 PM,26.6,23.0,86,30.20,7.0,ENE,12.7,-,0.00,Snow,Light Snow,70,2012-10-26 22:42:00
4:53 PM,27.0,23.0,85,30.32,6.0,ENE,13.8,-,0.00,Snow,Light Snow,70,2012-10-26 22:53:00
5:53 PM,27.0,21.9,81,30.31,9.0,ENE,11.5,-,0.00,,Overcast,70,2012-10-26 23:53:00
5:57 PM,26.6,23.0,86,30.20,7.0,ENE,10.4,-,0.00,Snow,Light Snow,70,2012-10-26 23:57:00
6:04 PM,26.6,23.0,86,30.19,5.0,ENE,12.7,-,0.00,Snow,Light Snow,70,2012-10-27 00:04:00
6:28 PM,26.6,23.0,86,30.19,10.0,ENE,12.7,-,0.00,,Overcast,70,2012-10-27 00:28:00
6:41 PM,26.6,23.0,86,30.19,2.0,ENE,11.5,-,0.00,Snow,Light Snow,70,2012-10-27 00:41:00
6:53 PM,26.1,23.0,88,30.30,3.0,East,10.4,-,0.00,Snow,Light Snow,80,2012-10-27 00:53:00
6:57 PM,26.6,23.0,86,30.19,1.8,East,10.4,-,0.00,Snow,Light Snow,80,2012-10-27 00:57:00
7:03 PM,26.6,23.0,86,30.19,0.8,East,11.5,-,0.00,Snow,Light Snow,80,2012-10-27 01:03:00
7:10 PM,26.6,23.0,86,30.19,1.2,ENE,10.4,-,0.01,Snow,Light Snow,70,2012-10-27 01:10:00
7:46 PM,26.6,23.0,86,30.19,1.5,ENE,11.5,-,0.02,Snow,Light Snow,60,2012-10-27 01:46:00
7:53 PM,26.1,23.0,88,30.31,1.5,ENE,10.4,-,0.02,Snow,Light Snow,60,2012-10-27 01:53:00
8:03 PM,26.6,23.0,86,30.18,1.2,ENE,12.7,-,0.01,Snow,Light Snow,60,2012-10-27 02:03:00
8:11 PM,26.6,23.0,86,30.19,1.0,ENE,11.5,-,N/A,Snow,Light Snow,70,2012-10-27 02:11:00
8:21 PM,24.8,23.0,93,30.18,1.5,ENE,11.5,-,0.02,Snow,Light Snow,60,2012-10-27 02:21:00
8:32 PM,24.8,23.0,93,30.18,3.0,ENE,13.8,-,0.02,Snow,Light Snow,60,2012-10-27 02:32:00
8:53 PM,25.0,21.9,88,30.30,4.0,ENE,11.5,-,0.02,Snow,Light Snow,60,2012-10-27 02:53:00
9:08 PM,24.8,21.2,86,30.18,2.5,ENE,13.8,-,0.00,Snow,Light Snow,60,2012-10-27 03:08:00
9:18 PM,24.8,21.2,86,30.18,4.0,ENE,13.8,-,0.00,Snow,Light Snow,70,2012-10-27 03:18:00
9:26 PM,24.8,21.2,86,30.18,4.0,ENE,11.5,-,0.00,Snow,Light Snow,70,2012-10-27 03:26:00
9:53 PM,24.1,21.9,91,30.30,6.0,ENE,12.7,-,0.00,Snow,Light Snow,70,2012-10-27 03:53:00
10:53 PM,24.1,21.0,88,30.28,7.0,ENE,11.5,-,0.00,Snow,Light Snow,70,2012-10-27 04:53:00
11:31 PM,24.8,21.2,86,30.16,8.0,ENE,13.8,-,0.00,,Overcast,70,2012-10-27 05:31:00
11:53 PM,23.0,19.9,88,30.26,10.0,ENE,16.1,-,0.00,,Overcast,70,2012-10-27 05:53:00